[[{"header":{"parameterUnit":"m.s-1","parameterCategory":1,"la1":30.2991,"la2":30.254,"lo1":-89.0895,"lo2":-89.0444,"dy":0.0017,"dx":0.0017,"nx":28,"ny":28,"refTime":"2023-10-17T09:00:00:Z","depth":0,"parameterNumber":2,"parameterNumberName":"U-component_of_WINDS"},"data":[0,0,0,0,0,0,0,0,0,0,0,0,0,0,0,0,0,0,0,0,0,0,0,0,0,0,0,0,0,0,0,0,0,0,0,0,0,0,0,0,0,0,0,0,0,0,0,0,0,0,0,0,0,0,0,0,0,0,0.8501,0.85,0,0.8451,0.8451,0.845,0.8426,0.8426,0.8426,0.8426,0.8372,0.8371,0.837,0,0,0,0,0,0,0,0,0,0,0,0,0,0.8571,0.857,0.8501,0.85,0.8499,0.8452,0.8451,0.845,0.8426,0.8426,0.8426,0.8426,0.8373,0.8371,0.8369,0,0,0,0,0,0,0,0,0,0,0,0,0,0.8533,0.8569,0.8501,0.8482,0.8479,0.8452,0.8451,0.845,0.8426,0.8426,0.8426,0.8426,0.8373,0.8371,0.8369,0.8356,0,0,0.8363,0.8362,0,0,0,0,0,0,0,0,0.8535,0.853,0.8485,0.8483,0.848,0.8445,0.8456,0.8418,0.8426,0.8446,0.8426,0.8426,0.8396,0.8392,0.8383,0.8353,0.8351,0.8362,0.8361,0.836,0.836,0,0,0,0,0,0,0,0.8538,0.8532,0.8481,0.8484,0.8481,0.8475,0.8469,0.8449,0.8422,0.8444,0.8442,0.8437,0.8395,0.8385,0.8381,0.835,0.8362,0.8361,0.8359,0.8358,0.8308,0.8308,0,0,0,0,0,0,0.8544,0.8535,0.8483,0.848,0.8508,0.8473,0.8467,0.8456,0.8422,0.8417,0.8437,0.8436,0.8389,0.8384,0.8379,0.8362,0.836,0.8358,0.8357,0.8308,0.8308,0.8308,0,0,0,0,0,0,0.8546,0.8539,0.8485,0.8507,0.8499,0.8472,0.846,0.8455,0.8445,0.8416,0.8411,0.8432,0.8389,0.8382,0.8362,0.836,0.8357,0.8355,0.8308,0.8308,0.8308,0.8327,0,0,0,0,0,0,0.8548,0.854,0.8535,0.8507,0.8498,0.8469,0.846,0.8454,0.8442,0.844,0.841,0.8405,0.8388,0.8366,0.836,0.8357,0.8354,0.8308,0.8308,0.8308,0.8326,0.8327,0.8328,0,0,0,0,0,0.855,0.8541,0.8535,0.8529,0.8491,0.8469,0.8464,0.8445,0.8442,0.8436,0.8418,0.8406,0.8361,0.8364,0.8357,0.8353,0.8308,0.8308,0.8308,0.8326,0.8327,0.8328,0,0,0,0,0,0,0.8569,0.8537,0.853,0.8512,0.8493,0.8465,0.8457,0.8447,0.8428,0.8427,0.8403,0.8397,0.8379,0.8364,0.8367,0.8339,0.8334,0.8332,0.8349,0.835,0.8351,0.8355,0.8352,0,0,0,0,0,0.8571,0.8556,0.8529,0.8516,0.8507,0.8484,0.8473,0.8461,0.844,0.8432,0.8412,0.8392,0.8373,0.8361,0.8342,0.8324,0.8317,0.8319,0.832,0.8321,0.8319,0.8309,0.831,0.8308,0.8308,0.8308,0,0,0.8575,0.8556,0.8548,0.8519,0.8503,0.8488,0.8477,0.8461,0.8449,0.8429,0.8409,0.8394,0.837,0.8351,0.8342,0.8338,0.8319,0.832,0.8321,0.8319,0.8309,0.831,0.831,0.8308,0.8308,0.8308,0,0,0.8574,0.8558,0.8546,0.8531,0.8508,0.8493,0.849,0.8463,0.8453,0.8433,0.8418,0.8403,0.8371,0.8355,0.8342,0.8338,0.8326,0.8332,0.8337,0.8327,0.8328,0.8328,0.8326,0.8325,0.8331,0.8331,0.8331,0,0.8581,0.8558,0.854,0.8526,0.8513,0.8496,0.8483,0.8469,0.844,0.8432,0.8429,0.839,0.8372,0.835,0.8349,0.834,0.8335,0.8335,0.8329,0.8329,0.8329,0.8327,0.8326,0.8332,0.8332,0.8332,0.8332,0,0.8568,0.8553,0.8545,0.852,0.8507,0.8493,0.8473,0.8462,0.8451,0.8436,0.8416,0.8395,0.8372,0.8366,0.8354,0.8342,0.8341,0.8334,0.8328,0.833,0.8328,0.8327,0.8333,0.8333,0.8333,0.8332,0,0,0.8576,0.8543,0.854,0.8529,0.8503,0.849,0.8475,0.8454,0.8445,0.8427,0.8414,0.8388,0.8382,0.8368,0.8355,0.8347,0.8345,0.8341,0.834,0.8342,0.833,0.8335,0.8334,0.8338,0.8337,0.8337,0.8332,0,0.8571,0.8545,0.853,0.851,0.8495,0.848,0.8467,0.845,0.8436,0.8421,0.8405,0.8388,0.8381,0.8373,0.8364,0.8347,0.8342,0.8347,0.8324,0.8324,0.833,0.8333,0.8338,0.8334,0.8331,0.8331,0.8331,0,0.8562,0.8545,0.8524,0.8501,0.8494,0.8483,0.8463,0.8449,0.8429,0.842,0.8406,0.8393,0.8377,0.8373,0.835,0.8354,0.8344,0.8335,0.8334,0.833,0.8327,0.8329,0.8332,0.8331,0.8329,0.8329,0.8329,0,0.8569,0.8541,0.8526,0.8516,0.8489,0.8482,0.847,0.845,0.8439,0.8421,0.8414,0.8394,0.8383,0.8368,0.835,0.8349,0.8329,0.8324,0.8321,0.8321,0.8316,0.8316,0.8317,0.8311,0.8311,0.8311,0.8311,0,0.8565,0.8553,0.8529,0.8519,0.8505,0.8487,0.8474,0.846,0.8443,0.843,0.8415,0.8403,0.8381,0.8366,0.8352,0.8336,0.8331,0.8322,0.8319,0.8323,0.8324,0.8315,0.8315,0.8311,0.8311,0.8311,0.8311,0,0.857,0.8554,0.8535,0.8512,0.8506,0.8496,0.8476,0.8465,0.8452,0.8436,0.8431,0.8409,0.8391,0.8372,0.8347,0.8338,0.8322,0.8317,0.8329,0.8327,0.8324,0.8324,0.8318,0.8316,0.8313,0.8313,0.8313,0,0.8568,0.8559,0.8535,0.8525,0.8514,0.85,0.8489,0.8471,0.846,0.8438,0.843,0.8411,0.8395,0.8367,0.8349,0.833,0.8324,0.8323,0.8321,0.8326,0.8323,0.8324,0.8323,0.8324,0.8324,0.8324,0.8324,0,0.8566,0.8559,0.8544,0.8527,0.8514,0.8499,0.8484,0.8477,0.8457,0.8445,0.8427,0.8415,0.8391,0.8372,0.8351,0.8338,0.8328,0.8325,0.8323,0.8327,0.8334,0.833,0.833,0.8325,0.8325,0.8325,0.8325,0.8325,0.8567,0.8558,0.854,0.8525,0.8512,0.8498,0.8487,0.8473,0.8458,0.8438,0.8429,0.8411,0.8392,0.8363,0.8351,0.8336,0.8333,0.833,0.8329,0.8329,0.833,0.8338,0.8333,0.8333,0.8332,0.8332,0.8332,0,0.8564,0.8552,0.8538,0.8518,0.8505,0.8498,0.8481,0.8471,0.8456,0.844,0.8425,0.8405,0.8387,0.8368,0.8349,0.8341,0.8336,0.8337,0.8337,0.8334,0.8334,0.8337,0.8342,0.8342,0.8342,0.8342,0.8342,0.8342,0.8561,0.8546,0.8537,0.8515,0.8503,0.8486,0.8477,0.8464,0.8452,0.843,0.8416,0.8404,0.8387,0.8367,0.8351,0.8346,0.8339,0.8342,0.8335,0.8335,0.8334,0.8333,0.8336,0.834,0.834,0.8336,0.8336,0.8336]},{"header":{"parameterUnit":"m.s-1","parameterCategory":1,"la1":30.2991,"la2":30.254,"lo1":-89.0895,"lo2":-89.0444,"dy":0.0017,"dx":0.0017,"nx":28,"ny":28,"refTime":"2023-10-17T09:00:00:Z","depth":0,"parameterNumber":3,"parameterNumberName":"V-component_of_WINDS"},"data":[0,0,0,0,0,0,0,0,0,0,0,0,0,0,0,0,0,0,0,0,0,0,0,0,0,0,0,0,0,0,0,0,0,0,0,0,0,0,0,0,0,0,0,0,0,0,0,0,0,0,0,0,0,0,0,0,0,0,-5.1345,-5.1346,0,-5.144,-5.1441,-5.1442,-5.1349,-5.1346,-5.1342,-5.1339,-5.1431,-5.1437,-5.1443,0,0,0,0,0,0,0,0,0,0,0,0,0,-5.1081,-5.1086,-5.1345,-5.1346,-5.1348,-5.1439,-5.1441,-5.1442,-5.135,-5.1346,-5.1341,-5.1337,-5.1429,-5.1436,-5.1443,0,0,0,0,0,0,0,0,0,0,0,0,0,-5.1187,-5.1088,-5.1345,-5.1313,-5.1311,-5.1439,-5.1441,-5.1442,-5.1351,-5.1345,-5.134,-5.1335,-5.1427,-5.1436,-5.1444,-5.1608,0,0,-5.1471,-5.1475,0,0,0,0,0,0,0,0,-5.1181,-5.1197,-5.1316,-5.1315,-5.1313,-5.1377,-5.1381,-5.1498,-5.1352,-5.1336,-5.1338,-5.1332,-5.1418,-5.1427,-5.1456,-5.1612,-5.1616,-5.1472,-5.1477,-5.1481,-5.1484,0,0,0,0,0,0,0,-5.1174,-5.1193,-5.1382,-5.1318,-5.1316,-5.1292,-5.1301,-5.1403,-5.1406,-5.1337,-5.133,-5.1343,-5.1416,-5.1448,-5.1458,-5.1618,-5.1472,-5.148,-5.1485,-5.1488,-5.1911,-5.1917,0,0,0,0,0,0,-5.1171,-5.1187,-5.1379,-5.1385,-5.1233,-5.1301,-5.1312,-5.1362,-5.1405,-5.1406,-5.1347,-5.1338,-5.1436,-5.1448,-5.1461,-5.1655,-5.1481,-5.1489,-5.1494,-5.1905,-5.1913,-5.1919,0,0,0,0,0,0,-5.1166,-5.1189,-5.1375,-5.1284,-5.1306,-5.1312,-5.1369,-5.1367,-5.1399,-5.1413,-5.1412,-5.138,-5.1432,-5.1448,-5.1572,-5.1656,-5.1493,-5.1501,-5.1898,-5.1908,-5.1916,-5.2044,0,0,0,0,0,0,-5.1158,-5.1188,-5.1251,-5.1287,-5.1312,-5.1487,-5.1374,-5.1373,-5.1415,-5.1404,-5.1444,-5.1445,-5.1429,-5.1559,-5.1581,-5.1666,-5.1508,-5.1891,-5.1902,-5.1913,-5.2032,-5.2056,-5.2077,0,0,0,0,0,-5.1149,-5.1283,-5.1255,-5.1278,-5.1391,-5.1492,-5.1506,-5.1486,-5.1422,-5.1485,-5.1494,-5.1444,-5.1644,-5.1573,-5.1596,-5.1685,-5.1885,-5.1899,-5.1912,-5.2022,-5.2052,-5.2076,0,0,0,0,0,0,-5.1256,-5.1287,-5.1256,-5.1405,-5.1447,-5.1476,-5.1555,-5.1518,-5.1578,-5.1565,-5.1536,-5.1546,-5.1677,-5.1693,-5.1613,-5.1845,-5.1754,-5.1773,-5.183,-5.1858,-5.188,-5.1873,-5.1515,0,0,0,0,0,-5.1297,-5.1378,-5.14,-5.1529,-5.1552,-5.155,-5.1594,-5.1575,-5.1616,-5.1633,-5.165,-5.1691,-5.1763,-5.1811,-5.1878,-5.2034,-5.2041,-5.2106,-5.2129,-5.2147,-5.2163,-5.2246,-5.2275,-5.1963,-5.1963,-5.1963,0,0,-5.1382,-5.1409,-5.1461,-5.1551,-5.1581,-5.1664,-5.1566,-5.1658,-5.1719,-5.1646,-5.1765,-5.1779,-5.1822,-5.1963,-5.2026,-5.1981,-5.2251,-5.2164,-5.2178,-5.2185,-5.2263,-5.2293,-5.2319,-5.1972,-5.197,-5.1969,0,0,-5.158,-5.1609,-5.172,-5.1752,-5.1799,-5.1797,-5.1824,-5.1859,-5.1866,-5.1985,-5.1932,-5.2003,-5.2128,-5.2161,-5.2194,-5.2404,-5.236,-5.2426,-5.2543,-5.2624,-5.2648,-5.267,-5.2745,-5.2772,-5.2443,-5.2443,-5.2443,0,-5.1679,-5.1804,-5.1781,-5.1877,-5.1918,-5.1857,-5.1968,-5.2,-5.2066,-5.2095,-5.2044,-5.2199,-5.2224,-5.2371,-5.2422,-5.2451,-5.248,-5.2422,-5.2647,-5.2668,-5.2688,-5.2759,-5.2787,-5.2451,-5.245,-5.2449,-5.2448,0,-5.1924,-5.2011,-5.2094,-5.2161,-5.2211,-5.2314,-5.2306,-5.2358,-5.2335,-5.2338,-5.2459,-5.2486,-5.2558,-5.2591,-5.2569,-5.2735,-5.2706,-5.2652,-5.2559,-5.2726,-5.2792,-5.2819,-5.2462,-5.2459,-5.2457,-5.2455,0,0,-5.2192,-5.2245,-5.2276,-5.2305,-5.2352,-5.2418,-5.2518,-5.2589,-5.2635,-5.2682,-5.2764,-5.2871,-5.2821,-5.2859,-5.2839,-5.291,-5.3074,-5.2847,-5.2847,-5.2888,-5.3259,-5.33,-5.3332,-5.3045,-5.305,-5.3054,-5.3255,0,-5.2391,-5.2566,-5.2548,-5.2714,-5.2794,-5.2737,-5.2823,-5.2861,-5.2866,-5.2933,-5.2937,-5.3014,-5.2942,-5.2964,-5.3032,-5.304,-5.3148,-5.3025,-5.312,-5.3124,-5.3112,-5.3366,-5.341,-5.3598,-5.3281,-5.3285,-5.3288,0,-5.2648,-5.2705,-5.288,-5.2914,-5.2947,-5.3026,-5.3089,-5.3154,-5.3194,-5.3193,-5.3236,-5.3203,-5.3302,-5.3208,-5.3343,-5.3259,-5.3297,-5.3306,-5.3313,-5.3321,-5.3217,-5.3381,-5.3658,-5.3687,-5.3329,-5.3325,-5.3323,0,-5.2826,-5.2947,-5.3067,-5.3094,-5.3137,-5.3193,-5.3214,-5.3249,-5.3293,-5.3347,-5.3375,-5.344,-5.3476,-5.3526,-5.3512,-5.3445,-5.365,-5.3554,-5.3651,-5.3651,-5.3697,-5.3694,-5.3984,-5.3721,-5.372,-5.372,-5.3719,0,-5.3051,-5.316,-5.3148,-5.3221,-5.3341,-5.3318,-5.3437,-5.345,-5.3482,-5.3556,-5.3509,-5.358,-5.3556,-5.3625,-5.3614,-5.3727,-5.3743,-5.3744,-5.374,-5.3749,-5.3749,-5.3773,-5.376,-5.3727,-5.3726,-5.3724,-5.3723,0,-5.3271,-5.3267,-5.3394,-5.3424,-5.3435,-5.3522,-5.3547,-5.3616,-5.3617,-5.3711,-5.3732,-5.3734,-5.3812,-5.3802,-5.3889,-5.3882,-5.4023,-5.4002,-5.401,-5.4005,-5.4102,-5.4093,-5.4418,-5.4459,-5.4169,-5.4172,-5.4174,0,-5.3415,-5.3497,-5.3537,-5.3584,-5.3609,-5.3685,-5.3729,-5.3709,-5.3757,-5.3809,-5.3871,-5.3946,-5.4004,-5.4132,-5.414,-5.4206,-5.4187,-5.4296,-5.4197,-5.4203,-5.4189,-5.4185,-5.4192,-5.4316,-5.4319,-5.4322,-5.4324,0,-5.3671,-5.3665,-5.3731,-5.3798,-5.3852,-5.3903,-5.3949,-5.399,-5.3974,-5.403,-5.411,-5.4155,-5.4245,-5.4319,-5.4381,-5.44,-5.436,-5.4355,-5.4381,-5.4391,-5.4392,-5.4393,-5.4064,-5.4348,-5.4346,-5.4344,-5.4343,-5.4342,-5.3857,-5.3928,-5.3967,-5.4042,-5.4075,-5.4119,-5.4185,-5.4194,-5.4261,-5.4334,-5.4317,-5.4407,-5.4444,-5.4524,-5.4549,-5.4619,-5.4579,-5.4616,-5.4626,-5.4635,-5.4647,-5.4381,-5.463,-5.4629,-5.4628,-5.4628,-5.4627,0,-5.4111,-5.4133,-5.4203,-5.4269,-5.4328,-5.4286,-5.4334,-5.4386,-5.4467,-5.4505,-5.4564,-5.4656,-5.4727,-5.4741,-5.4808,-5.4861,-5.4844,-5.488,-5.4876,-5.4881,-5.4679,-5.465,-5.4892,-5.4892,-5.4892,-5.4892,-5.4892,-5.4892,-5.425,-5.4367,-5.4366,-5.4498,-5.4519,-5.4608,-5.4639,-5.4679,-5.471,-5.4815,-5.4874,-5.4883,-5.4911,-5.498,-5.5044,-5.5045,-5.5073,-5.5116,-5.511,-5.4921,-5.4895,-5.487,-5.4843,-5.5122,-5.5122,-5.5307,-5.5308,-5.531]}]]